Wind_Speed
23 22 21 22 24 23 22 23 25 27 28 27 27 27 24 21 23 24 24 24 24 22 22 24 23 20 18 15 12 10 9 7 9 10 10 9 8 8 8 6 4 2 3 4 5 6 8 8 7
22 21 21 21 22 21 21 20 21 23 25 26 27 27 26 25 25 26 26 26 25 22 20 23 26 24 24 22 19 16 14 11 12 13 13 12 10 10 10 9 6 4 4 4 5 6 8 8 8
20 21 22 22 22 23 24 23 22 22 24 26 27 28 28 28 28 28 28 30 30 27 24 24 25 25 24 24 24 22 20 16 15 16 16 15 13 13 13 12 10 8 5 6 6 7 8 9 8
19 21 21 20 20 20 21 22 23 25 25 26 27 28 29 30 31 31 31 32 33 31 30 28 28 27 27 26 25 24 23 22 20 19 19 18 17 16 14 14 14 11 8 7 8 9 10 10 10
17 18 19 19 19 19 20 21 22 24 26 27 28 30 30 31 32 33 33 34 35 35 33 32 32 31 30 29 27 26 25 25 24 22 22 22 21 19 17 16 16 15 13 10 9 11 12 12 12
15 15 16 17 18 18 19 20 21 22 25 26 28 30 32 32 33 33 33 33 34 35 35 35 35 33 33 33 33 30 29 28 28 27 25 25 24 23 21 18 18 17 15 13 12 13 14 15 14
14 15 16 17 17 19 19 19 20 22 24 25 27 28 30 32 34 35 35 36 37 37 37 37 37 36 35 35 34 35 34 32 31 32 31 28 27 27 25 23 20 20 18 16 15 15 16 16 16
17 17 18 19 19 20 20 20 20 21 24 26 27 25 27 29 31 33 35 35 37 38 39 41 40 40 38 36 38 37 37 36 35 35 35 33 31 29 29 28 26 22 22 20 18 17 18 19 18
18 18 18 19 20 21 21 21 20 22 23 26 25 27 28 29 30 31 32 33 34 35 36 39 42 42 43 41 40 40 39 38 38 37 36 36 36 34 32 31 30 29 26 23 21 21 21 21 20
12 12 12 12 13 14 15 16 18 19 21 22 24 26 27 29 31 31 33 34 35 37 37 37 39 41 43 43 44 44 43 42 40 39 39 38 38 40 39 35 33 33 31 28 25 25 23 24 23
6 5 6 7 8 10 10 11 12 12 15 15 18 21 24 26 29 31 34 36 38 38 39 41 41 43 43 44 44 45 46 46 46 44 41 39 41 43 43 42 39 37 35 34 32 29 27 27 26
6 7 8 9 10 12 14 15 16 16 18 19 21 22 25 27 29 29 29 32 37 40 42 44 45 44 45 46 47 47 47 47 48 47 47 45 45 45 45 46 43 43 40 37 36 34 33 31 29
8 10 11 12 13 14 16 16 16 17 19 22 23 24 26 28 29 31 33 34 36 38 41 45 49 49 48 48 48 49 49 49 50 50 48 49 52 50 49 51 53 51 46 43 39 38 36 35 33
12 13 14 15 15 15 18 20 17 18 21 26 28 30 32 34 34 35 38 39 40 42 44 45 48 51 52 53 53 51 51 51 51 52 52 52 48 54 43 48 41 57 55 49 45 42 40 38 37
15 16 17 16 16 15 14 20 18 18 22 26 30 33 36 37 38 38 41 44 44 45 47 47 49 51 52 55 56 57 56 55 55 54 54 55 58 55 54 56 60 44 54 53 50 48 45 41 39
18 19 20 19 18 16 16 14 22 22 23 27 30 33 35 38 38 39 42 43 43 45 47 48 50 52 55 56 58 60 61 60 59 59 57 57 58 59 58 55 53 50 48 55 50 52 48 46 41
20 21 22 24 20 20 21 18 25 26 28 30 33 35 36 36 37 38 39 41 41 39 41 45 49 52 55 57 59 60 62 63 63 63 62 62 61 61 62 64 65 57 55 61 62 36 50 47 47
24 24 24 26 24 22 25 24 28 28 30 32 34 36 36 36 37 37 38 40 39 38 39 39 41 43 48 55 58 61 61 63 64 65 65 66 66 65 64 65 66 65 61 52 48 57 44 52 55
28 28 28 29 28 27 27 27 29 30 32 34 37 37 35 36 37 38 39 40 41 42 41 39 38 41 41 45 49 56 59 62 63 64 66 67 68 69 68 67 67 68 67 64 52 49 49 59 51
30 30 31 32 31 31 29 28 29 32 35 36 38 37 35 37 36 40 43 44 43 44 43 42 43 41 43 45 44 47 50 56 60 62 63 65 67 68 70 70 68 69 67 66 61 60 56 50 48
32 33 33 34 34 33 34 31 26 32 36 37 39 39 36 38 38 42 45 47 46 46 46 46 46 47 47 45 45 45 43 42 47 54 58 62 65 67 69 71 72 69 66 71 62 47 49 41 57
33 34 35 37 37 36 34 36 30 33 35 38 39 39 38 39 40 44 45 43 46 48 47 48 47 47 49 51 48 49 46 44 44 45 49 55 59 63 66 68 71 71 68 69 75 63 50 51 44
34 36 37 37 37 35 33 36 31 33 35 37 40 38 38 41 44 47 46 45 47 46 48 48 46 47 48 51 51 49 49 48 47 49 46 46 50 54 59 62 64 66 66 65 73 81 79 65 60
36 37 37 37 36 35 33 34 31 30 37 40 39 37 40 43 47 48 48 48 46 50 51 49 50 51 52 55 56 57 55 54 53 51 50 46 43 45 49 54 58 61 59 60 63 70 78 73 55
35 35 38 40 37 36 36 36 32 30 40 40 39 38 42 46 50 50 50 48 50 57 47 46 49 51 54 55 56 58 63 61 56 54 52 51 47 43 41 45 49 54 57 54 54 55 65 76 69
36 37 37 42 43 42 36 36 31 31 36 40 40 41 43 46 51 50 53 54 49 41 39 46 46 42 39 41 48 52 54 60 59 54 51 53 50 46 42 40 45 46 51 56 54 52 48 61 73
38 39 41 45 44 42 36 35 29 29 39 41 40 41 44 46 50 53 51 36 32 33 38 37 36 40 39 38 39 39 45 50 54 52 48 53 51 49 43 39 39 44 44 46 53 51 49 48 65
39 43 46 43 43 42 36 33 28 33 33 39 39 40 42 47 49 52 32 24 26 25 28 28 30 35 28 25 28 27 28 39 48 45 48 49 53 49 42 38 36 39 42 41 43 45 45 47 50
44 44 42 40 39 37 37 31 27 30 37 37 37 40 42 46 45 40 27 24 27 26 28 32 25 30 22 20 20 15 20 30 34 41 42 43 50 45 41 38 36 35 37 38 40 42 44 42 48
46 42 39 39 36 37 33 27 24 32 37 36 38 39 42 44 42 40 27 28 33 29 30 24 24 22 21 15 14 8 11 19 26 31 31 39 44 42 41 40 36 34 34 33 36 39 34 36 34
Wind_Direction
257 252 250 252 254 257 260 259 252 246 244 247 251 254 258 255 248 253 258 258 259 258 252 242 247 249 247 244 243 246 249 251 231 220 218 222 229 223 210 206 205 211 181 167 170 172 182 191 189
258 254 253 251 258 261 261 259 255 249 247 247 248 252 254 255 251 253 256 258 259 257 255 249 251 255 252 248 248 247 246 239 235 226 224 224 227 228 220 215 209 210 211 190 173 184 195 197 190
260 257 255 254 257 256 256 254 253 250 246 248 250 252 254 256 256 255 255 258 260 258 253 250 250 248 249 246 242 242 243 239 233 230 227 225 227 230 232 227 221 214 208 204 191 193 198 199 192
259 256 256 257 258 256 254 251 251 250 249 248 250 252 252 253 253 253 253 255 258 259 258 254 252 249 250 249 244 236 237 239 236 234 234 231 230 230 234 237 234 232 223 213 198 201 209 205 204
263 260 258 258 259 258 256 255 253 251 251 250 250 254 254 254 254 254 254 253 256 258 258 256 252 253 251 252 250 246 239 238 241 239 237 238 236 236 234 233 238 234 232 224 215 207 213 220 214
267 267 268 267 266 264 262 261 261 260 260 258 257 255 254 254 255 256 256 258 257 258 259 257 255 252 250 251 251 248 244 239 237 240 241 240 239 240 238 238 238 238 236 234 226 216 219 224 227
283 281 277 275 276 274 271 266 264 263 263 262 261 260 260 259 257 255 254 252 252 252 253 255 256 255 252 249 250 249 248 243 240 238 240 242 243 242 243 240 239 240 237 236 233 228 224 227 231
284 283 283 281 279 277 275 275 272 269 267 265 265 264 264 263 262 260 259 258 256 255 255 257 257 255 253 250 249 249 249 247 244 241 239 241 241 241 242 242 242 239 238 235 236 236 232 230 231
288 286 284 282 280 281 282 283 283 281 278 277 279 273 268 267 267 265 263 261 262 257 254 254 255 256 256 253 250 249 248 248 246 245 244 241 241 241 241 240 240 240 238 236 234 235 238 235 234
290 287 287 289 292 291 293 292 290 289 287 286 283 281 279 272 269 268 264 263 261 261 257 253 255 255 255 255 253 250 249 249 247 246 245 242 241 241 243 241 241 242 240 238 236 236 237 242 237
307 319 327 327 326 322 318 311 309 319 313 306 304 298 289 286 281 277 275 272 268 263 262 258 252 252 253 253 253 252 250 247 247 246 244 244 243 241 241 241 241 242 241 239 237 237 237 238 243
310 321 321 323 319 313 309 307 309 312 308 307 304 302 299 294 289 284 279 275 269 266 265 262 259 255 253 250 251 251 251 249 248 245 244 243 243 243 241 240 241 242 241 240 239 238 238 239 239
307 314 317 314 312 310 307 307 315 319 318 314 314 310 305 301 298 296 290 283 275 270 266 262 260 258 255 253 250 250 250 249 249 247 245 242 243 244 240 243 237 241 242 241 240 239 240 240 241
302 309 311 309 309 313 315 309 314 317 315 310 310 306 302 298 297 297 294 291 287 278 270 265 262 257 256 255 252 250 249 248 247 247 245 243 235 244 245 233 245 238 242 242 240 240 239 240 242
299 301 300 297 299 306 309 308 312 312 311 310 308 304 301 297 292 291 292 291 288 283 277 270 264 260 256 252 252 251 248 247 247 245 245 244 243 241 241 242 240 230 236 242 240 240 240 239 239
292 297 299 298 301 301 302 310 308 312 312 315 315 312 308 304 301 299 298 296 291 284 278 271 265 260 257 254 251 249 248 246 245 245 244 244 243 241 238 236 244 251 234 245 244 243 239 242 240
288 294 296 298 300 296 298 308 303 308 314 317 318 317 314 309 304 300 299 299 298 290 285 276 268 261 256 255 252 248 248 246 245 245 245 244 244 243 240 240 239 246 250 245 237 240 237 243 241
286 289 294 297 293 296 300 307 305 308 311 317 318 317 314 309 303 304 305 303 300 297 293 283 274 269 263 256 252 251 249 247 245 243 244 245 244 243 242 242 240 239 240 240 244 247 244 243 242
287 291 294 297 293 294 300 304 306 309 311 315 317 316 313 307 306 307 306 303 300 297 294 291 283 275 271 266 260 253 249 248 247 246 243 243 244 245 243 243 242 239 237 241 242 234 244 250 247
285 289 293 295 297 294 299 303 309 310 309 313 313 313 310 308 310 308 308 302 299 296 292 293 291 283 273 268 262 259 254 250 247 247 246 244 244 243 244 244 243 240 237 235 237 239 230 242 240
283 289 293 295 297 298 299 300 310 309 309 310 310 311 306 305 310 312 309 303 300 296 289 288 285 278 279 274 262 261 258 255 251 246 245 245 243 243 242 242 242 241 239 232 230 231 238 247 245
285 290 293 296 298 299 300 301 317 312 310 307 308 308 304 304 310 314 310 301 298 292 290 288 285 279 276 273 267 261 257 256 253 250 246 245 244 242 241 241 241 241 238 234 228 231 238 237 239
285 290 293 296 297 297 297 299 313 311 309 304 305 308 306 306 310 317 310 305 297 297 295 289 285 278 274 270 267 261 257 253 254 252 250 248 245 243 241 240 239 239 240 236 231 234 239 240 237
285 290 294 297 296 296 296 300 313 315 306 301 305 311 307 309 315 317 311 311 303 298 298 289 283 278 275 272 264 261 256 251 252 252 248 245 246 244 241 240 238 238 239 239 237 236 235 232 236
283 290 295 296 297 296 296 299 316 313 301 300 307 310 309 311 319 319 315 312 305 299 293 287 288 284 283 279 274 263 254 250 249 248 242 241 241 243 243 239 237 237 236 238 239 239 236 236 239
282 288 294 295 293 290 292 297 313 307 299 304 309 309 310 315 321 318 316 313 309 302 293 296 297 289 283 285 281 270 253 246 242 242 238 235 237 239 239 238 237 238 237 237 239 241 240 237 233
279 287 292 294 291 289 291 293 314 303 305 303 307 310 312 320 322 322 318 320 321 304 307 304 304 304 292 286 285 274 249 235 233 234 235 233 231 235 236 235 234 235 236 238 239 240 241 241 235
284 289 295 292 288 290 289 290 309 305 303 305 308 309 315 323 326 327 320 326 332 326 312 311 315 313 302 301 293 276 248 226 224 227 231 236 227 230 233 232 232 233 234 236 236 236 238 243 243
285 289 293 286 284 289 289 290 314 305 301 307 312 314 321 327 326 331 322 319 318 311 314 314 313 326 315 300 300 296 240 221 216 222 232 234 224 225 228 228 229 229 232 232 236 233 235 241 240
284 290 291 281 280 283 289 290 306 303 300 309 317 317 323 326 326 323 325 315 312 311 319 316 323 313 326 310 292 294 265 227 215 219 227 224 220 220 225 223 224 224 227 232 233 228 230 237 239
Height
5825 5825 5826 5827 5830 5828 5829 5831 5832 5834 5835 5836 5837 5838 5840 5841 5842 5844 5843 5843 5845 5846 5848 5849 5850 5852 5853 5854 5854 5855 5856 5856 5857 5857 5858 5859 5860 5861 5861 5861 5862 5863 5864 5864 5865 5866 5866 5867 5869
5820 5821 5822 5823 5824 5824 5825 5826 5828 5829 5831 5832 5833 5834 5835 5837 5837 5838 5839 5839 5841 5843 5844 5845 5846 5847 5848 5850 5852 5852 5853 5854 5854 5855 5856 5857 5858 5859 5859 5860 5860 5861 5862 5863 5864 5865 5865 5866 5867
5816 5817 5818 5818 5819 5819 5821 5822 5823 5824 5826 5827 5828 5829 5830 5831 5832 5833 5835 5835 5836 5837 5840 5841 5841 5842 5843 5845 5846 5848 5850 5850 5851 5852 5853 5854 5855 5856 5857 5858 5858 5859 5860 5861 5863 5863 5863 5864 5866
5813 5814 5814 5814 5814 5815 5816 5817 5818 5819 5820 5821 5822 5823 5824 5825 5827 5828 5829 5829 5830 5831 5833 5835 5836 5837 5838 5840 5841 5843 5845 5846 5847 5848 5849 5851 5852 5853 5854 5855 5857 5858 5859 5860 5861 5862 5862 5862 5864
5810 5810 5810 5810 5810 5811 5811 5812 5812 5813 5814 5816 5817 5818 5819 5820 5821 5822 5823 5824 5824 5825 5826 5828 5829 5831 5833 5834 5837 5839 5840 5842 5844 5844 5845 5847 5848 5849 5850 5852 5853 5854 5856 5858 5859 5860 5860 5861 5862
5807 5806 5806 5806 5806 5806 5807 5807 5808 5809 5809 5810 5811 5812 5813 5814 5815 5816 5817 5818 5818 5819 5819 5820 5821 5824 5827 5829 5831 5833 5835 5837 5838 5840 5841 5842 5844 5846 5847 5848 5850 5851 5853 5855 5856 5857 5858 5858 5860
5803 5803 5802 5802 5801 5802 5803 5803 5803 5804 5803 5804 5805 5806 5807 5808 5808 5809 5809 5809 5810 5811 5812 5813 5814 5816 5820 5821 5823 5826 5828 5831 5833 5834 5836 5838 5840 5842 5843 5845 5846 5847 5849 5851 5853 5854 5854 5855 5857
5800 5799 5798 5798 5798 5798 5798 5798 5798 5799 5798 5799 5799 5800 5801 5800 5801 5802 5802 5803 5804 5805 5806 5807 5808 5809 5812 5815 5816 5819 5821 5824 5826 5827 5830 5833 5834 5836 5838 5840 5841 5843 5844 5846 5849 5850 5851 5851 5852
5795 5795 5794 5793 5793 5793 5793 5793 5793 5793 5793 5793 5794 5793 5794 5794 5794 5794 5795 5796 5796 5797 5799 5799 5799 5801 5803 5806 5809 5811 5814 5816 5819 5821 5823 5826 5828 5830 5831 5833 5835 5837 5839 5841 5843 5845 5846 5847 5849
5791 5790 5789 5788 5788 5788 5788 5788 5788 5789 5788 5787 5786 5786 5786 5787 5787 5787 5787 5787 5788 5788 5790 5792 5792 5792 5794 5796 5799 5802 5805 5808 5810 5813 5816 5818 5820 5822 5824 5827 5828 5831 5834 5836 5838 5839 5841 5843 5844
5788 5787 5786 5786 5785 5785 5785 5785 5784 5785 5783 5783 5782 5780 5779 5780 5781 5781 5780 5780 5780 5780 5780 5781 5783 5784 5785 5787 5789 5792 5795 5798 5801 5804 5807 5810 5811 5813 5816 5819 5821 5822 5825 5829 5831 5833 5835 5837 5839
5786 5785 5784 5784 5783 5782 5782 5781 5780 5780 5780 5778 5777 5776 5774 5772 5771 5772 5772 5771 5770 5770 5770 5770 5772 5774 5775 5777 5779 5781 5784 5787 5790 5794 5797 5800 5802 5803 5807 5809 5811 5815 5817 5820 5823 5826 5828 5830 5832
5783 5782 5782 5781 5780 5778 5777 5776 5776 5775 5773 5772 5771 5770 5768 5766 5765 5763 5762 5761 5760 5760 5759 5759 5760 5762 5764 5766 5768 5770 5773 5776 5778 5782 5786 5790 5791 5794 5797 5800 5800 5803 5808 5811 5814 5818 5821 5824 5826
5779 5779 5778 5777 5776 5775 5773 5771 5771 5770 5768 5766 5766 5763 5761 5759 5757 5755 5752 5750 5749 5748 5747 5747 5748 5749 5751 5753 5756 5758 5761 5764 5767 5770 5774 5777 5780 5783 5764 5786 5778 5789 5796 5801 5804 5809 5812 5815 5819
5775 5775 5774 5774 5773 5771 5770 5765 5766 5765 5763 5761 5759 5756 5753 5751 5749 5746 5743 5740 5739 5736 5734 5734 5735 5735 5737 5739 5741 5744 5747 5750 5753 5756 5760 5764 5768 5772 5775 5775 5770 5766 5786 5789 5793 5798 5803 5806 5809
5772 5771 5770 5769 5768 5767 5766 5765 5759 5759 5757 5754 5751 5748 5745 5741 5739 5735 5731 5728 5726 5723 5720 5720 5720 5720 5721 5723 5726 5728 5732 5736 5739 5742 5746 5749 5754 5758 5763 5765 5765 5762 5768 5781 5784 5788 5792 5799 5801
5767 5766 5765 5763 5763 5762 5761 5761 5755 5752 5749 5746 5742 5739 5736 5733 5730 5726 5721 5717 5713 5710 5707 5705 5704 5704 5704 5706 5709 5712 5715 5720 5724 5729 5731 5735 5739 5743 5748 5751 5754 5758 5764 5769 5772 5767 5780 5787 5793
5763 5762 5761 5759 5759 5757 5754 5753 5749 5747 5743 5739 5735 5731 5728 5724 5720 5716 5711 5707 5702 5698 5696 5693 5691 5688 5687 5688 5690 5694 5698 5701 5706 5712 5716 5719 5724 5728 5732 5736 5742 5749 5753 5757 5762 5766 5772 5777 5781
5756 5755 5755 5753 5752 5751 5748 5747 5744 5740 5736 5732 5728 5724 5721 5716 5711 5706 5702 5697 5692 5688 5684 5682 5680 5677 5674 5674 5674 5676 5679 5684 5689 5694 5699 5704 5708 5713 5718 5722 5726 5733 5741 5747 5752 5755 5761 5766 5769
5749 5748 5747 5746 5745 5743 5742 5741 5737 5733 5729 5724 5720 5716 5712 5708 5703 5697 5692 5687 5682 5678 5673 5670 5667 5665 5663 5661 5660 5661 5663 5669 5672 5675 5680 5686 5691 5697 5703 5708 5713 5719 5727 5734 5741 5745 5748 5754 5757
5741 5741 5740 5739 5738 5737 5734 5733 5731 5726 5721 5716 5711 5707 5703 5699 5693 5688 5682 5676 5671 5666 5662 5657 5655 5652 5649 5649 5648 5649 5651 5654 5657 5659 5661 5666 5672 5679 5686 5692 5697 5702 5710 5720 5728 5731 5736 5741 5746
5734 5733 5732 5731 5729 5728 5727 5723 5724 5718 5713 5707 5703 5698 5694 5688 5684 5679 5671 5665 5659 5653 5650 5644 5640 5637 5635 5633 5634 5635 5637 5640 5643 5643 5646 5650 5656 5662 5668 5674 5681 5688 5695 5703 5713 5717 5725 5732 5735
5727 5726 5725 5724 5722 5720 5719 5716 5716 5711 5705 5699 5694 5690 5684 5678 5673 5667 5660 5653 5645 5640 5635 5629 5625 5621 5619 5617 5617 5619 5622 5625 5627 5629 5634 5638 5642 5647 5653 5660 5666 5674 5681 5688 5696 5704 5712 5721 5726
5719 5718 5717 5716 5714 5713 5711 5709 5710 5703 5695 5689 5685 5681 5674 5668 5662 5655 5647 5640 5633 5626 5619 5613 5609 5605 5601 5599 5599 5601 5605 5608 5611 5615 5620 5626 5630 5634 5640 5647 5654 5660 5668 5675 5683 5691 5698 5707 5715
5711 5711 5709 5707 5705 5704 5702 5700 5701 5694 5684 5680 5677 5672 5666 5659 5652 5643 5635 5628 5620 5610 5603 5597 5592 5587 5583 5579 5578 5579 5583 5587 5594 5599 5606 5613 5619 5624 5629 5635 5641 5648 5656 5664 5671 5678 5684 5691 5699
5704 5703 5702 5697 5697 5695 5694 5692 5693 5686 5677 5671 5668 5663 5657 5650 5640 5631 5622 5612 5602 5594 5590 5584 5579 5574 5568 5563 5560 5557 5560 5566 5575 5584 5592 5598 5606 5613 5619 5625 5631 5638 5645 5652 5659 5667 5673 5678 5687
5696 5695 5693 5690 5688 5686 5685 5684 5686 5677 5669 5664 5659 5653 5648 5640 5631 5621 5610 5599 5592 5585 5581 5575 5570 5562 5554 5549 5543 5538 5538 5545 5558 5569 5578 5585 5593 5602 5610 5617 5622 5629 5636 5641 5649 5656 5661 5667 5675
5687 5686 5685 5681 5677 5676 5676 5674 5679 5669 5662 5656 5652 5645 5639 5630 5622 5611 5601 5594 5587 5580 5574 5567 5561 5552 5544 5539 5534 5528 5527 5531 5544 5556 5565 5573 5583 5592 5601 5609 5615 5621 5628 5634 5641 5647 5652 5657 5664
5678 5676 5675 5671 5669 5667 5666 5666 5669 5659 5653 5648 5644 5636 5629 5622 5613 5605 5597 5588 5581 5573 5567 5561 5553 5546 5539 5534 5531 5526 5523 5528 5536 5547 5554 5562 5573 5583 5593 5601 5608 5614 5620 5627 5632 5639 5644 5649 5655
5666 5667 5665 5661 5661 5659 5659 5657 5657 5652 5644 5640 5636 5628 5621 5614 5606 5597 5590 5582 5574 5567 5560 5553 5546 5541 5536 5531 5528 5526 5524 5526 5532 5540 5547 5555 5565 5575 5584 5593 5601 5607 5614 5619 5624 5630 5636 5640 5645